Regional Weather Roundup
Issued by NWS

Home | Current Version | Previous Version | Text Only | Print | Product List | Glossary Off
Versions: 1 2 3 4 5 6 7 8 9 10 11 12 13 14 15 16 17 18 19 20 21 22 23 24 25 26 27 28 29 30 31 32 33 34 35 36 37 38 39 40 41 42 43 44 45 46 47 48 49 50

000
ASUS43 KMKX 202321
RWRWI

WISCONSIN REGIONAL WEATHER ROUNDUP
NATIONAL WEATHER SERVICE MILWAUKEE/SULLIVAN WI
500 PM CST THU NOV 20 2014

NOTE: "FAIR" INDICATES FEW OR NO CLOUDS BELOW 12,000 FEET WITH NO
SIGNIFICANT WEATHER AND/OR OBSTRUCTIONS TO VISIBILITY.

WIZ001-002-006>008-014>016-023>028-210000-
NORTHWEST WISCONSIN

CITY           SKY/WX    TMP DP  RH WIND       PRES   REMARKS
SUPERIOR ARPT  CLEAR     13  -1  54 W9        30.15R WCI   1
ASHLAND        CLEAR     10   1  67 W6        30.11R WCI   0
HAYWARD        CLEAR     12  -2  53 VRB3      30.10R
SIREN          CLEAR     12  -1  56 W6        30.15R WCI   3
CUMBERLAND     CLEAR     10  -4  52 NW9       30.12R WCI  -2
RICE LAKE      CLEAR     11  -2  55 W5        30.15R WCI   3
CHETEK         CLEAR     11  -1  58 W5        30.14R WCI   2
LADYSMITH      CLEAR     12   0  60 W8        30.11R WCI   0
EAU CLAIRE     CLEAR     13  -2  51 NW8       30.16R WCI   2
MENOMONIE      CLEAR     13   0  54 W7        30.17R WCI   3
NEW RICHMOND   CLEAR     11  -2  57 W5        30.17R WCI   3
OSCEOLA        CLEAR     13   0  54 W6        30.20R WCI   4
$$

WIZ003>005-009-010-017-018-210000-
NORTH CENTRAL WISCONSIN

CITY           SKY/WX    TMP DP  RH WIND       PRES   REMARKS
MANITOWISH WTR CLOUDY     6  -2  70 W6        30.01R WCI  -5
ARBOR VITAE    PTCLDY     9   0  66 W5        30.02R WCI   1
WOODRUFF       PTCLDY     9   0  66 W5        30.02R WCI   1
RHINELANDER    CLEAR      6  -3  66 W8        30.02R WCI  -7
EAGLE RIVER    CLEAR      6  -4  63 W8        30.00R WCI  -6
LAND O LAKES   CLOUDY     8   1  73 W8        30.00R WCI  -5
PHILLIPS       CLEAR      2  -3  79 CALM      30.05R
TOMAHAWK       PTCLDY     7  -2  66 CALM      30.05R
MEDFORD        MOCLDY    10  -1  61 W7        30.06R WCI  -1
MERRILL        MOCLDY    10  -1  62 NW6       30.06R WCI   0
$$

WIZ029-030-035-036-043>047-210000-
CENTRAL WISCONSIN

CITY           SKY/WX    TMP DP  RH WIND       PRES   REMARKS
WAUSAU         CLOUDY    12   1  61 NW9       30.06R WCI   0
MOSINEE        MOCLDY    12   3  67 W13       30.08R WCI  -3
MARSHFIELD     CLEAR     11  -1  58 NW9       30.09R WCI  -2
STEVENS POINT  CLOUDY    11  -1  57 W9        30.10R WCI  -2
WAUPACA        MOCLDY    16   1  51 W7        30.11R WCI   7
WAUTOMA        CLEAR     15  -1  49 NW10      30.13R WCI   2
WISC RAPIDS    CLEAR     13  -3  49 NW9       30.12R WCI   1
CAMP DOUGLAS   CLEAR     13  -1  53 W10       30.13R WCI   0
$$

WIZ011>013-019>022-031-037>040-048>050-210000-
NORTHEAST WISCONSIN

CITY           SKY/WX    TMP DP  RH WIND       PRES   REMARKS
ANTIGO         CLOUDY     8  -2  65 NW13G20   30.03R WCI  -8
SHAWANO        CLEAR     14   1  56 NW10      30.10R WCI   1
OCONTO         PTCLDY    14   1  56 NW8       30.08R WCI   3
STURGEON BAY   PTCLDY    16   0  48 W16       30.05R WCI   0
GREEN BAY      PTCLDY    14   4  64 W10       30.09R WCI   1
MANITOWOC      PTCLDY    15   4  61 NW13      30.09R WCI   1
APPLETON       MOCLDY    14   0  52 W13G21    30.08R WCI   0
CLINTONVILLE   CLOUDY    14   3  62 NW9       30.10R WCI   2
OSHKOSH        PTCLDY    15   1  53 NW13      30.10R WCI   1
$$

WIZ032>034-041-042-053>061-210000-
SOUTHWEST WISCONSIN

CITY           SKY/WX    TMP DP  RH WIND       PRES   REMARKS
LA CROSSE      CLEAR     19   3  49 W16       30.18R WCI   4
SPARTA         CLEAR     16   0  49 W7        30.16R WCI   6
VIROQUA        CLEAR     14   2  58 W8        30.13R WCI   3
BOSCOBEL       CLEAR     20   2  45 W7        30.19R WCI  11
PRAIRIE DU CHI CLEAR     18   4  55 W14       30.20R WCI   4
PLATTEVILLE    CLEAR     17   5  60 W13       30.17R WCI   3
$$

WIZ056-057-062-063-064-067-068-210000-
SOUTH CENTRAL WISCONSIN

CITY           SKY/WX    TMP DP  RH WIND       PRES   REMARKS
REEDSBURG      CLEAR     16  -1  45 NW8       30.13R WCI   5
BARABOO/DELLS  CLEAR     16  -1  46 W13G20    30.12R WCI   2
LONE ROCK      CLEAR     22   0  38 NW14      30.16R WCI   9
MINERAL POINT  CLEAR     19   1  45 W10G17    30.13R WCI   8
MADISON        CLEAR     19  -1  41 NW8       30.13R WCI   9
MIDDLETON      CLEAR     20  -4  35 NW10      30.13R WCI   9
WATERTOWN      CLEAR     19   1  46 W10       30.11R WCI   7
MONROE         CLEAR     19   9  63 W15       30.12R WCI   5
JANESVILLE     CLEAR     21   3  45 W9        30.13R WCI  11
$$

WIZ051-052-058>065-066-070>072-210000-
SOUTHEAST WISCONSIN

CITY           SKY/WX    TMP DP  RH WIND       PRES   REMARKS
MILWAUKEE      PTCLDY    22  -2  35 W12G21    30.10R WCI  10
WAUKESHA       CLEAR     18   1  49 W14G25    30.10R WCI   4
MILWAUKEE/TIMM CLEAR     19   0  42 W12       30.09R WCI   7
RACINE         CLEAR     21   0  39 W8        30.12R WCI  11
BURLINGTON     CLEAR     18   3  52 W7        30.11R WCI   9
KENOSHA        CLEAR     21   4  47 W14       30.10R WCI   8
FOND DU LAC    CLEAR     16   0  49 NW14      30.09R WCI   2
SHEBOYGAN      PTCLDY    16   2  54 NW14G24   30.08R WCI   2
WEST BEND      CLEAR     19   0  42 W8G16     30.08R WCI   9
JUNEAU         CLEAR     17  -1  45 W7        30.11R WCI   7
$$

LSZ147-162-210000-
LAKE SUPERIOR

STATION/POSITION TIME  TEMP    WIND        PRES    WAVE
                       AIR SEA DIR/SP/G            HT/PER
                 (UTC) (F)     (DEG/KT/KT) (MB)    (FT/S)
DEVILS ISLAND    2300   16     300/ 18/ 22 1020.6R
PORT WING        2200   18     290/ 14/ 20 1019.3R
SAXON HARBOR     2200   14     240/  6/ 11 1018.6
$$

LMZ867-665-643>646-210000-
LAKE MICHIGAN

STATION/POSITION TIME  TEMP    WIND        PRES    WAVE
                       AIR SEA DIR/SP/G            HT/PER
                 (UTC) (F)     (DEG/KT/KT) (MB)    (FT/S)
CHAMBERS ISLAND  2200   18     260/  9/ 15 1016.3R
N MID LAKE BUOY  2250   22 42  320/ 21/ 27 1016.5R   4/ 4
NORTHPORT PIER   2201   20     300/ 15/ 22 1015.6R
SISTER BAY       2213          300/ 20/ 24   N/A
ALGOMA LAKESHORE 2213          320/  8/ 13   N/A
KEWAUNEE LAKESHO 2200   16     280/ 11/ 15 1016.3R
SHEBOYGAN LAKESH 2300   18 33  290/ 14/ 17 1020.3R
PORT WASHINGTON  2200   22     290/ 11/ 16 1019.0R
ATWATER BUOY     2300   26     260/ 19/ 21 1019.1R
MILWAUKEE LAKESH 2300   22     290/ 11/ 16   N/A
S MID LAKE BUOY  2250   26 43  280/ 21/ 27 1019.4R   6/ 6
KENOSHA   LAKESH 2300   23     270/ 12/ 17 1019.6R
$$

TC  - TEMPERATURE IN CELSIUS
VSB - VISIBILITY IN STATUTE MILES
WCI - WIND CHILL INDEX
HX  - HEAT INDEX




USA.gov is the U.S. government's official web portal to all federal, state and local government web resources and services.